User: anonymous   Login
Location: NJAA Observatory
(40.6819°N, 74.8979°W)
Time: 05:17:15
(UTC-04:00)
Language:

Iridium 84 - Orbit

View from above orbital plane
View from above orbital plane
View from above satellite
View from above satellite

Ground track
Ground track

The orbit data is extracted from the following two-line orbital elements,

1 25530U 98066D   17086.93439820 +.00000203 +00000-0 +65350-4 0  9992
2 25530 086.3996 023.9288 0002222 082.2721 277.8727 14.34221169965283
Epoch (UTC): 27 March 2017 22:25:32
Eccentricity: 0.0002222
inclination: 86.3996°
perigee height: 776 km
apogee height: 779 km
right ascension of ascending node: 23.9288°
argument of perigee: 82.2721°
revolutions per day: 14.34221169
mean anomaly at epoch: 277.8727°
orbit number at epoch: 96528

The dashed part of the orbit path shows where the satellite is in the earth's shadow,  

DLR